Weather History for KDEN - January, 2012

Change the Weather History Date:

Saturday, January 14, 2012

  Actual Average Record
Temperature  
Mean Temperature 39 °F 31 °F  
Max Temperature 59 °F 44 °F 65 °F (1938)
Min Temperature 19 °F 18 °F -18 °F (1888)
Degree Days  
Heating Degree Days 26 34  
Month to date heating degree days 423 481  
Since 1 July heating degree days 2857 2949  
Cooling Degree Days 0 0  
Month to date cooling degree days 0 0  
Year to date cooling degree days 0 0  
Moisture  
Dew Point 14 °F    
Average Humidity 42    
Maximum Humidity 64    
Minimum Humidity 19    
Precipitation  
Precipitation 0.00 in 0.01 in 0.36 in (1960)
Month to date precipitation 0.18 0.18  
Year to date precipitation 0.18 0.18  
Snow  
Snow 0.00 in - - ()
Month to date snowfall 4.1  
Since 1 July snowfall 33.6  
Snow Depth 1.00 in    
Sea Level Pressure  
Sea Level Pressure 30.02 in    
Wind  
Wind Speed 12 mph (SSW)    
Max Wind Speed 29 mph    
Max Gust Speed 32 mph    
Visibility 10 miles    
Events      
T = Trace of Precipitation, MM = Missing Value Source: NWS Daily Summary

Daily Weather History Graph

Daily Weather History Graph

Search for Another Location

Airport or City:

Trip Planner

Search our weather history database for the weather conditions in past years. The results will help you decide how hot, cold, wet, or windy it might be!

Date:

Astronomy

Jan. 14, 2012 Rise Set
Actual Time 7:18 AM MST 4:56 PM MST
Civil Twilight 6:48 AM MST 5:26 PM MST
Nautical Twilight 6:15 AM MST 5:59 PM MST
Astronomical Twilight 5:43 AM MST 6:32 PM MST
Moon 11:19 PM MST (1/14) 10:05 AM MST (1/14)
Length of Visible Light 10h 37m
Length of Day
9h 38m
Waning Gibbous, 68% of the Moon is Illuminated
Jan 14
Waning Gibbous
Jan 16
Last Quarter
Jan 23
New
Jan 30
First Quarter
Feb 7
Full

Hourly Weather History & Observations

Time (MST) Temp. Windchill Dew Point Humidity Pressure Visibility Wind Dir Wind Speed Gust Speed Precip Events Conditions
12:53 AM 37.0 °F 32.4 °F 3.0 °F 24% 30.08 in 10.0 mi West 5.8 mph - N/A   Scattered Clouds
1:53 AM 36.0 °F 31.1 °F 3.0 °F 25% 30.07 in 10.0 mi WSW 5.8 mph - N/A   Scattered Clouds
2:53 AM 26.1 °F 14.5 °F 6.1 °F 43% 30.11 in 10.0 mi South 13.8 mph - N/A   Partly Cloudy
3:53 AM 30.9 °F 24.3 °F 6.1 °F 35% 30.10 in 10.0 mi South 6.9 mph - N/A   Scattered Clouds
4:53 AM 23.0 °F 13.9 °F 8.1 °F 53% 30.15 in 10.0 mi ESE 8.1 mph - N/A   Scattered Clouds
5:53 AM 25.0 °F 12.6 °F 9.0 °F 51% 30.16 in 10.0 mi SSE 15.0 mph - N/A   Mostly Cloudy
6:53 AM 25.0 °F 14.2 °F 8.1 °F 49% 30.15 in 10.0 mi South 11.5 mph - N/A   Scattered Clouds
7:53 AM 32.0 °F 23.0 °F 10.4 °F 41% 30.12 in 10.0 mi SW 11.5 mph - N/A   Scattered Clouds
8:53 AM 39.9 °F 32.5 °F 12.9 °F 33% 30.11 in 10.0 mi WSW 12.7 mph - N/A   Scattered Clouds
9:53 AM 43.0 °F 35.7 °F 18.0 °F 37% 30.10 in 10.0 mi SW 15.0 mph - N/A   Scattered Clouds
10:53 AM 48.9 °F - 16.0 °F 27% 30.08 in 10.0 mi SW 13.8 mph - N/A   Scattered Clouds
11:53 AM 50.0 °F - 18.0 °F 28% 30.06 in 10.0 mi SW 6.9 mph - N/A   Scattered Clouds
12:53 PM 52.0 °F - 14.0 °F 22% 29.98 in 10.0 mi WNW 15.0 mph 21.9 mph N/A   Scattered Clouds
1:53 PM 57.0 °F - 17.1 °F 21% 29.94 in 10.0 mi West 18.4 mph 26.5 mph N/A   Scattered Clouds
2:53 PM 54.0 °F - 12.9 °F 20% 29.98 in 10.0 mi SW 6.9 mph - N/A   Scattered Clouds
3:53 PM 48.0 °F - 21.0 °F 34% 29.96 in 10.0 mi South 10.4 mph - N/A   Scattered Clouds
4:53 PM 39.0 °F 32.8 °F 26.1 °F 60% 30.01 in 10.0 mi SSE 9.2 mph - N/A   Scattered Clouds
5:53 PM 37.9 °F 29.6 °F 26.1 °F 62% 29.99 in 10.0 mi SSE 13.8 mph - N/A   Scattered Clouds
6:53 PM 42.1 °F 35.2 °F 19.9 °F 41% 29.95 in 10.0 mi SSW 12.7 mph - N/A   Scattered Clouds
7:53 PM 42.1 °F 36.1 °F 19.0 °F 40% 29.93 in 10.0 mi SSW 10.4 mph - N/A   Scattered Clouds
8:53 PM 46.4 °F 38.7 °F 14.0 °F 27% 29.94 in 10.0 mi SW 20.7 mph - N/A   Scattered Clouds
9:53 PM 46.9 °F - 12.9 °F 25% 29.87 in 10.0 mi SW 17.3 mph 25.3 mph N/A   Scattered Clouds
10:53 PM 42.1 °F 35.2 °F 15.1 °F 34% 29.86 in 10.0 mi SW 12.7 mph - N/A   Mostly Cloudy
11:53 PM 45.0 °F 38.2 °F 12.0 °F 26% 29.82 in 10.0 mi SW 15.0 mph - N/A   Mostly Cloudy